Location: Cella
(44.7333°N, 10.5667°E)
Time: 10:18:28
(UTC+00:00)

Cosmos 1777 Rocket - Pass Details

Date: 23 June 2021
Orbit: 757 x 776 km, 74.0° (Epoch: 28 July)

Event Time Altitude Azimuth Distance (km) Brightness Sun altitude
Rises 21:22:14 0° 344° (NNW) 3,262 8.9 -16.7°
Reaches altitude 10° 21:24:45 10° 351° (N) 2,333 7.6 -16.9°
Maximum altitude 21:29:47 42° 62° (ENE) 1,093 4.8 -17.3°
Enters shadow 21:32:29 24° 119° (ESE) 1,555 5.1 -17.6°
